Вернуться в каталог

STARLINK-31986

АктивенСвязьVLEO
NORAD 60019·PAYLOAD·🇺🇸 United States

Запущен Jun 8, 2024 с Cape Canaveral Space Force Station

Loading…

Ближайшие Пролёты (ближайшие 24 часа)

TLE

СвежийSource: CelesTrak SupGP

Эпоха: Sep 14, 2026, 13:45 UTC

1 60019C 24111D   26257.57340278  .00025492  00000+0  75333-3 0  2575
2 60019  53.1575 277.4114 0001341  67.5027 331.3545 15.34371304    12

Отслеживайте STARLINK-31986 в реальном времени с AllMySat

Download on the App Store